London City, United Kingdom

12:54 PM BST on August 30, 2016 (GMT +0100)
London City

Weather History for EGLC - May, 2013

Change the Weather History Date:

Thursday, May 2, 2013

  Actual Average Record
Temperature  
Mean Temperature 50 °F -  
Max Temperature 60 °F 58 °F 75 °F (1997)
Min Temperature 41 °F 47 °F 41 °F (2013)
Degree Days  
Heating Degree Days 14    
Moisture  
Dew Point 29 °F    
Average Humidity 46    
Maximum Humidity 66    
Minimum Humidity 24    
Precipitation  
Precipitation 0.00 in - - ()
Sea Level Pressure  
Sea Level Pressure 30.20 in    
Wind  
Wind Speed 5 mph ()    
Max Wind Speed 14 mph    
Max Gust Speed -    
Visibility 6.2 miles    
Events      
Averages and records for this station are not official NWS values.
T = Trace of Precipitation, MM = Missing Value Source: Averaged Metar Reports

Daily Weather History Graph

Daily Weather History Graph

Search for Another Location

Airport or City:

Trip Planner

Search our weather history database for the weather conditions in past years. The results will help you decide how hot, cold, wet, or windy it might be!

Date:

Astronomy

May. 02, 2013 Rise Set
Actual Time 5:29 AM BST 8:24 PM BST
Civil Twilight 4:51 AM BST 9:03 PM BST
Nautical Twilight 4:01 AM BST 9:53 PM BST
Astronomical Twilight 2:59 AM BST 10:57 PM BST
Moon 2:00 AM BST (5/2) 12:06 PM BST (5/2)
Length of Visible Light 16h 12m
Length of Day
14h 55m
Waning Gibbous, 50% of the Moon is Illuminated
May 2
Waning Gibbous
May 2
Last Quarter
May 10
New
May 18
First Quarter
May 25
Full

Hourly Weather History & Observations

Time (BST) Temp. Windchill Dew Point Humidity Pressure Visibility Wind Dir Wind Speed Gust Speed Precip Events Conditions
12:20 AM 46.4 °F - 30.2 °F 53% 30.21 in 6.2 mi NNW 2.3 mph - N/A   Unknown
12:50 AM 44.6 °F - 30.2 °F 57% 30.21 in 6.2 mi Variable 2.3 mph - N/A   Unknown
1:20 AM 44.6 °F - 28.4 °F 53% 30.21 in 6.2 mi Variable 2.3 mph - N/A   Unknown
1:50 AM 44.6 °F - 28.4 °F 53% 30.21 in 6.2 mi Variable 2.3 mph - N/A   Unknown
2:20 AM 44.6 °F 43.1 °F 28.4 °F 53% 30.21 in 6.2 mi Variable 3.5 mph - N/A   Unknown
2:50 AM 42.8 °F - 28.4 °F 57% 30.21 in 6.2 mi Variable 2.3 mph - N/A   Unknown
3:20 AM 42.8 °F - 28.4 °F 57% 30.18 in 6.2 mi Variable 2.3 mph - N/A   Unknown
3:50 AM 42.8 °F - 28.4 °F 57% 30.18 in 6.2 mi North 2.3 mph - N/A   Unknown
4:20 AM 42.8 °F 41.1 °F 26.6 °F 53% 30.18 in 6.2 mi Variable 3.5 mph - N/A   Unknown
4:50 AM 41.0 °F - 28.4 °F 61% 30.18 in 6.2 mi Variable 2.3 mph - N/A   Unknown
5:20 AM 41.0 °F - 26.6 °F 57% 30.18 in 6.2 mi Calm Calm - N/A   Unknown
5:50 AM 41.0 °F 39.0 °F 26.6 °F 57% 30.21 in - Variable 3.5 mph - N/A   Clear
6:20 AM 42.8 °F - 26.6 °F 53% 30.21 in - Variable 2.3 mph - N/A   Clear
6:50 AM 42.8 °F 40.1 °F 26.6 °F 53% 30.21 in - North 4.6 mph - N/A   Clear
7:20 AM 44.6 °F 42.2 °F 26.6 °F 49% 30.21 in - NNE 4.6 mph - N/A   Clear
7:50 AM 46.4 °F 43.5 °F 24.8 °F 43% 30.21 in - NE 5.8 mph - N/A   Clear
8:20 AM 50.0 °F - 21.2 °F 32% 30.24 in - NE 6.9 mph - N/A   Clear
8:50 AM 50.0 °F - 21.2 °F 32% 30.24 in - NNE 8.1 mph - N/A   Clear
9:20 AM 51.8 °F - 15.8 °F 24% 30.24 in - NNE 9.2 mph - N/A   Clear
9:50 AM 53.6 °F - 17.6 °F 24% 30.24 in - NNE 9.2 mph - N/A   Clear
10:20 AM 53.6 °F - 17.6 °F 24% 30.24 in - NE 9.2 mph - N/A   Clear
10:50 AM 55.4 °F - 19.4 °F 25% 30.21 in - NE 9.2 mph - N/A   Clear
11:20 AM 55.4 °F - 21.2 °F 26% 30.21 in - NE 8.1 mph - N/A   Clear
11:50 AM 57.2 °F - 21.2 °F 25% 30.21 in - NNE 9.2 mph - N/A   Clear
12:20 PM 57.2 °F - 24.8 °F 29% 30.21 in - ENE 8.1 mph - N/A   Clear
1:20 PM 59.0 °F - 26.6 °F 29% 30.21 in - NE 9.2 mph - N/A   Clear
1:50 PM 60.8 °F - 28.4 °F 29% 30.21 in - East 8.1 mph - N/A   Clear
2:20 PM 60.8 °F - 30.2 °F 31% 30.18 in - East 6.9 mph - N/A   Clear
2:50 PM 60.8 °F - 30.2 °F 31% 30.18 in - ENE 9.2 mph - N/A   Clear
3:20 PM 60.8 °F - 32.0 °F 34% 30.18 in - ESE 13.8 mph - N/A   Clear
3:50 PM 59.0 °F - 33.8 °F 39% 30.18 in - ESE 12.7 mph - N/A   Clear
4:20 PM 59.0 °F - 33.8 °F 39% 30.18 in - ESE 12.7 mph - N/A   Clear
4:50 PM 59.0 °F - 35.6 °F 42% 30.18 in - ESE 11.5 mph - N/A   Clear
5:20 PM 57.2 °F - 35.6 °F 44% 30.18 in - ESE 11.5 mph - N/A   Clear
5:50 PM 57.2 °F - 35.6 °F 44% 30.18 in - ESE 11.5 mph - N/A   Clear
6:20 PM 55.4 °F - 35.6 °F 47% 30.18 in - East 10.4 mph - N/A   Clear
6:50 PM 55.4 °F - 35.6 °F 47% 30.18 in - ESE 9.2 mph - N/A   Clear
7:20 PM 53.6 °F - 35.6 °F 51% 30.18 in - ESE 9.2 mph - N/A   Clear
7:50 PM 51.8 °F - 35.6 °F 54% 30.18 in - ESE 8.1 mph - N/A   Clear
8:20 PM 51.8 °F - 35.6 °F 54% 30.18 in - ESE 9.2 mph - N/A   Clear
8:50 PM 50.0 °F - 35.6 °F 58% 30.18 in - ESE 9.2 mph - N/A   Clear
9:20 PM 48.2 °F - 35.6 °F 62% 30.21 in - ESE 6.9 mph - N/A   Clear
9:50 PM 48.2 °F - 35.6 °F 62% 30.21 in - ESE 5.8 mph - N/A   Clear
10:20 PM 48.2 °F - 35.6 °F 62% 30.21 in 6.2 mi East 4.6 mph - N/A   Unknown
10:50 PM 48.2 °F - 35.6 °F 62% 30.21 in 6.2 mi ESE 2.3 mph - N/A   Unknown
11:20 PM 48.2 °F - 35.6 °F 62% 30.21 in 6.2 mi Calm Calm - N/A   Unknown
11:50 PM 48.2 °F - 37.4 °F 66% 30.18 in 6.2 mi Calm Calm - N/A   Unknown